SCP
0 0 0 0 0 0 0 0 0 0 0 0 0 0 0 0 0 0 0 0 0 -0 0 0 0 0 0 0 0 0 0 0 0 0 0 -0 -0 -0 0 0 0 0 1 2 2
0 0 0 0 0 0 0 0 0 0 0 0 0 0 0 0 0 -0 0 0 0 0 0 0 0 0 0 0 0 0 0 0 0 0 0 0 0 0 0 0 0 0 0 1 2
0 0 0 0 0 0 0 0 0 0 0 0 0 0 0 0 -0 -0 0 0 0 0 0 0 0 0 0 0 0 0 0 0 0 0 0 0 0 -0 -0 0 0 0 0 1 1
0 0 0 0 0 0 0 0 0 0 0 0 0 0 0 0 0 0 0 0 0 0 0 0 0 0 0 0 0 0 0 0 0 0 0 0 0 0 -0 0 0 0 0 0 0
0 0 0 0 0 0 0 0 0 0 0 0 0 0 0 0 0 0 0 0 0 0 0 0 0 0 0 0 0 0 0 0 0 0 0 0 0 0 0 0 0 0 0 0 0
0 0 0 0 0 0 0 0 0 0 0 0 0 0 0 0 0 -0 0 0 0 0 0 0 0 0 0 0 0 0 0 0 0 0 0 0 0 0 0 0 0 0 0 0 0
0 0 0 0 0 0 0 0 0 0 0 0 0 0 0 -0 0 -0 -0 0 0 0 -0 0 0 0 0 0 0 0 0 0 0 0 0 0 0 0 0 0 0 0 0 0 0
0 0 0 0 0 0 0 0 0 0 0 0 0 0 0 0 0 0 -0 0 0 0 0 0 0 0 0 0 0 0 0 0 0 0 0 0 0 0 0 0 0 0 0 0 0
0 0 0 0 0 0 0 -0 0 0 0 0 0 0 0 0 0 0 0 0 0 0 0 0 0 0 0 0 0 0 0 0 0 0 0 0 0 0 0 0 0 0 0 0 0
0 0 0 0 0 0 0 0 0 0 0 0 0 0 0 0 0 0 0 0 0 0 0 0 0 0 0 0 0 0 0 0 0 0 0 0 0 0 0 0 0 0 0 0 0
0 0 0 0 0 0 0 0 0 0 0 0 0 0 0 -0 -0 -0 -0 0 0 0 0 0 0 0 0 0 0 0 0 0 0 0 0 0 0 0 0 0 0 0 0 0 0
0 0 0 0 0 -0 0 0 0 0 0 -0 0 0 -0 -0 -0 -0 0 0 0 0 0 0 0 0 0 0 0 0 0 0 0 0 0 0 0 0 0 0 0 0 0 0 0
0 0 0 0 0 0 0 0 0 0 0 0 0 0 0 0 0 0 -0 0 0 0 0 0 0 0 0 0 0 0 0 0 0 0 0 0 0 0 0 -0 0 0 0 0 0
0 0 0 0 0 0 0 0 0 0 0 0 -0 0 0 0 0 0 0 0 0 0 0 -0 -0 0 0 0 0 0 0 0 0 0 0 0 0 0 0 0 0 0 0 0 0
0 0 0 0 0 0 0 0 0 0 0 0 0 0 -0 -0 0 0 0 0 0 0 0 0 0 -0 0 0 0 0 0 0 0 0 0 0 0 0 0 0 0 0 0 0 0
0 0 -0 0 0 0 0 0 0 0 0 0 -0 0 -0 0 0 0 0 0 0 0 0 -0 -0 -0 0 0 0 0 0 0 0 0 0 0 0 0 0 0 0 0 0 0 0
0 0 -0 0 0 0 0 0 0 0 0 0 0 0 -0 -0 0 0 -0 0 0 0 0 0 -0 0 0 0 0 0 0 0 0 0 0 0 0 0 0 0 0 0 0 0 0
0 0 0 0 0 0 0 0 0 0 -0 -0 0 -0 0 -0 0 -0 -0 0 0 0 0 0 0 0 0 0 0 0 0 0 0 0 0 0 0 0 0 0 0 0 0 0 0
0 0 0 0 0 0 0 0 0 -0 -0 -0 0 0 0 -0 0 0 0 0 0 0 0 0 0 0 0 0 0 0 0 0 0 0 0 0 0 0 0 0 0 0 0 0 0
0 0 0 0 0 0 0 0 0 0 -0 -0 0 0 0 0 0 0 0 0 0 0 0 0 -0 -0 -0 -0 0 0 0 0 0 0 0 0 0 0 0 0 0 0 0 0 2
0 0 0 0 0 0 0 0 0 0 0 -0 -0 0 0 0 0 0 0 0 0 0 -0 0 0 0 -0 -0 0 0 0 0 0 0 0 0 0 0 0 0 0 0 1 3 3
0 0 0 0 0 0 0 0 0 0 0 0 0 0 0 0 0 0 0 0 0 0 0 0 -0 0 0 -0 0 0 0 0 0 0 0 0 0 0 1 1 1 1 2 2 1
0 0 0 0 0 0 0 0 -0 -0 0 0 0 0 0 0 0 0 0 0 0 0 -0 0 -0 -0 0 0 0 0 0 0 -0 0 0 0 0 1 1 1 2 1 1 1 0
0 0 0 0 0 0 0 0 -0 0 0 0 -0 0 0 0 0 0 0 0 -0 0 0 -0 -0 -0 0 0 0 0 0 0 0 0 0 0 1 0 0 0 1 1 1 0 0
0 0 0 0 0 0 0 0 -0 -0 0 0 0 0 -0 0 0 0 0 -0 -0 0 0 0 0 -0 0 0 0 0 0 0 0 0 0 0 0 0 0 0 0 0 0 0 0
0 0 0 0 0 0 0 0 -0 -0 0 0 0 -0 -0 0 0 -0 -0 -0 0 0 0 0 -0 -0 -0 0 0 0 0 0 0 0 0 0 0 0 0 0 0 0 0 0 0
0 0 0 0 0 0 0 0 -0 0 0 0 -0 -0 -0 0 -0 -0 -0 -0 -0 0 0 0 0 0 -0 0 0 0 0 0 0 0 0 0 0 0 0 0 0 0 0 0 0
Wind_Speed_500mb
41 42 42 42 44 47 49 50 50 50 50 50 51 53 57 62 63 56 67 61 59 49 28 35 32 31 33 41 46 40 15 33 50 37 24 58 15 60 36 40 12 23 53 77 67
42 43 44 46 47 48 49 48 46 48 51 53 52 51 51 59 62 67 78 33 23 34 54 45 36 33 41 39 26 23 24 52 18 24 29 43 28 46 10 4 7 51 65 63 70
45 47 49 52 53 51 49 46 45 43 42 43 44 46 51 54 54 10 8 15 42 41 29 58 42 40 49 51 45 17 51 29 35 50 62 48 45 57 10 10 21 27 64 61 55
47 51 56 59 61 59 56 54 52 49 46 42 43 50 42 27 14 12 15 32 54 43 22 36 50 54 9 23 61 33 51 53 49 54 67 41 57 33 19 25 38 33 44 61 58
54 59 64 68 70 71 66 59 56 53 52 42 47 45 32 21 56 45 26 36 29 32 17 31 48 47 40 14 44 47 46 50 59 69 73 60 40 36 34 26 39 34 41 58 57
60 65 69 73 74 73 68 64 60 53 46 44 45 34 26 35 36 21 28 41 26 27 39 33 43 49 37 35 40 16 45 50 58 63 71 44 34 33 42 19 21 26 21 50 58
64 68 72 76 77 73 68 63 54 48 42 35 36 26 30 76 42 26 24 33 25 39 50 44 52 52 33 28 78 66 45 33 48 60 51 50 36 47 42 24 26 24 20 12 68
67 71 75 77 80 71 62 53 46 25 29 29 32 19 28 47 21 23 19 26 24 37 50 43 45 49 53 53 53 33 30 35 46 50 50 35 48 30 34 23 36 28 32 27 21
70 74 79 80 78 64 52 45 26 45 38 33 26 15 27 22 29 14 23 27 24 25 26 38 39 46 45 28 31 25 32 42 48 42 41 38 20 18 39 40 40 32 42 38 37
73 77 81 85 77 54 48 39 37 25 7 10 9 11 39 14 31 56 51 29 26 19 24 24 35 19 23 27 30 34 47 43 49 48 50 48 34 17 41 50 40 37 47 49 45
75 80 83 86 68 40 44 50 47 6 18 28 44 42 70 89 77 55 43 27 33 20 13 16 10 30 34 40 46 38 40 45 31 39 32 47 31 28 23 30 39 49 52 53 50
76 80 85 83 48 28 32 34 22 17 36 60 44 61 68 51 54 48 37 30 22 17 16 19 27 43 35 39 46 50 47 42 32 36 39 23 31 18 26 23 45 52 61 68 64
79 84 87 71 29 25 31 36 29 35 11 34 25 35 35 31 30 47 40 40 20 25 28 26 21 29 50 42 43 52 46 38 31 32 32 22 14 33 37 42 39 70 78 72 78
81 85 78 48 18 23 22 44 35 42 4 9 22 18 32 51 20 18 19 31 10 19 38 23 34 36 40 48 42 44 42 42 31 25 27 33 25 28 37 30 27 33 67 72 72
82 79 59 25 37 29 42 44 41 30 9 10 34 45 71 29 47 5 20 11 20 28 21 17 18 25 36 42 43 40 39 35 37 26 3 30 20 32 26 23 30 28 54 76 77
80 61 33 20 32 40 51 44 24 5 9 19 47 47 50 35 24 10 2 8 11 16 27 38 38 28 18 29 41 36 37 37 31 18 14 36 19 14 29 47 28 16 53 80 78
78 40 21 28 36 38 38 31 6 3 35 31 52 51 25 39 33 27 30 7 8 9 15 20 39 37 28 13 34 41 29 15 21 16 12 23 14 14 31 28 23 22 46 70 76
67 26 16 25 35 30 40 7 4 30 25 39 43 43 20 36 32 38 22 11 13 15 7 8 8 36 43 47 12 37 27 6 9 16 21 23 14 26 20 31 42 58 59 62 75
42 18 22 32 29 22 29 7 7 21 32 37 38 20 24 39 23 27 26 3 14 8 6 8 11 26 34 18 19 12 23 35 10 10 10 11 8 3 29 23 30 45 67 53 76
43 26 17 47 38 24 9 9 16 26 33 30 15 11 26 35 25 28 15 4 12 18 10 8 12 24 36 29 30 16 12 20 8 9 11 10 17 9 10 10 32 37 30 59 66
37 18 34 33 22 24 5 8 21 43 42 20 28 21 27 16 14 12 11 14 2 15 23 6 7 6 35 12 20 7 4 9 5 8 10 12 10 12 11 25 36 39 70 72 81
24 8 38 36 19 16 8 12 23 30 38 17 13 13 10 15 13 10 15 18 1 17 16 9 6 8 27 27 36 13 16 17 14 12 6 8 3 18 31 34 44 53 79 83 84
36 13 31 32 7 9 16 23 23 26 30 16 12 19 7 19 16 13 16 18 13 19 8 10 3 7 12 15 7 9 15 22 16 5 7 5 4 13 21 32 43 68 78 82 84
20 9 19 18 43 18 19 21 31 36 18 37 21 24 25 25 22 17 24 16 48 12 18 11 7 6 3 6 8 7 11 9 7 1 10 6 14 8 12 20 21 50 72 76 78
24 11 15 10 16 33 24 30 39 27 23 20 7 16 39 23 31 7 37 42 24 11 8 11 7 10 20 29 15 11 12 9 11 23 9 17 27 14 10 10 27 56 68 77 81
15 14 19 47 44 29 18 26 37 42 23 21 26 41 36 30 22 49 44 40 11 3 2 4 5 13 11 6 16 6 15 19 23 45 31 31 23 11 19 35 34 56 72 76 74
29 27 18 25 19 21 15 32 40 38 17 44 39 40 39 28 62 71 68 66 33 12 4 2 3 4 2 3 7 14 11 15 4 25 27 28 18 25 15 31 47 60 70 75 76
Wind_Direction_500mb
352 348 343 340 338 336 331 325 324 319 315 313 309 311 314 313 308 297 283 289 281 283 258 270 228 219 240 237 223 234 231 238 238 233 243 263 261 273 275 229 89 63 134 142 145
348 346 344 341 337 332 326 323 319 315 314 310 311 312 312 310 310 293 295 283 301 288 253 256 252 229 235 228 228 211 220 234 235 242 257 272 277 269 254 139 96 102 122 134 148
349 345 341 340 338 335 330 323 319 316 308 303 304 308 308 310 320 302 101 140 348 322 289 233 240 253 254 218 218 246 233 240 238 249 263 273 282 288 200 208 169 153 141 144 152
346 345 344 344 342 338 333 327 324 322 316 308 312 311 311 314 287 350 247 259 302 322 281 219 230 244 261 232 218 246 247 245 250 242 249 257 274 291 291 188 177 189 163 156 153
348 347 346 345 343 338 332 326 320 321 311 309 311 312 309 271 258 310 334 317 310 284 248 232 224 228 240 243 248 234 238 245 248 257 262 277 284 280 293 167 186 177 207 171 171
349 348 346 343 341 335 330 325 320 314 306 309 308 310 283 262 304 297 291 292 268 249 261 255 246 235 271 238 245 256 232 240 248 246 254 255 275 280 272 255 198 171 186 185 175
348 346 344 342 339 333 328 327 324 317 306 299 300 295 265 264 297 296 270 317 319 264 274 274 243 235 230 245 248 249 263 244 230 241 246 239 259 253 257 228 282 217 193 137 179
346 344 342 340 337 332 330 334 330 337 300 288 287 276 258 315 298 306 306 294 308 286 274 271 275 280 263 265 280 251 246 245 239 230 236 204 239 240 228 218 250 233 185 188 187
344 343 341 339 336 331 333 342 344 327 298 281 265 250 266 324 277 320 344 260 283 315 288 263 275 281 275 261 259 256 230 233 240 231 220 216 219 209 196 218 232 220 201 190 196
344 342 339 337 335 332 335 349 350 335 33 353 287 242 259 259 299 298 303 278 264 265 286 271 278 271 262 243 231 227 218 229 224 224 210 224 228 184 230 203 214 220 180 190 206
343 341 338 337 335 337 340 347 358 332 296 283 269 246 277 278 287 288 282 287 285 221 256 243 256 240 246 232 243 244 246 236 249 221 231 216 213 196 229 210 200 201 187 186 200
341 341 339 336 335 348 337 338 3 313 308 313 283 265 267 285 272 279 282 282 295 240 256 260 225 251 242 257 236 245 244 235 227 223 225 205 206 200 209 232 200 197 193 196 203
341 343 339 337 340 354 330 340 321 335 297 306 312 301 335 320 311 271 297 279 245 265 250 238 246 249 247 247 258 238 238 243 230 206 230 208 216 202 210 222 219 200 201 198 201
340 344 339 342 4 3 356 341 325 333 334 272 346 353 312 316 301 289 321 293 212 244 257 223 241 240 251 240 244 249 238 244 247 217 215 204 218 219 203 207 216 206 194 195 200
342 346 344 343 344 338 337 331 321 339 313 33 357 342 338 351 317 308 289 207 257 256 279 269 213 248 237 237 237 266 241 236 250 264 224 200 196 207 170 209 212 209 183 189 197
343 346 349 4 344 346 343 324 313 325 313 336 346 338 338 340 14 321 292 348 2 259 262 264 260 252 270 271 234 244 269 243 246 247 258 255 174 203 186 206 203 182 175 185 192
343 346 356 345 347 355 346 336 14 33 336 340 336 332 337 352 346 352 322 231 216 243 219 266 234 230 219 257 255 229 233 228 217 218 214 264 262 196 205 199 189 170 163 172 182
349 354 13 335 349 345 337 4 310 346 337 334 333 319 353 358 333 344 317 341 272 221 303 264 266 195 201 220 189 224 225 215 137 158 209 220 231 203 210 187 191 166 171 173 173
6 26 13 338 337 324 4 10 349 1 344 332 330 333 338 336 347 347 326 284 350 206 281 302 258 185 185 151 146 218 213 199 309 177 133 194 277 185 181 181 174 160 165 168 175
358 11 21 350 7 332 47 306 347 354 340 339 317 322 317 332 342 342 297 358 340 355 308 288 300 188 178 175 185 221 180 192 191 183 156 159 203 206 155 216 164 147 129 122 121
10 338 6 12 28 34 77 311 318 346 349 338 315 306 318 322 310 306 285 298 12 313 329 252 265 215 157 159 205 166 181 241 17 264 160 151 218 125 80 141 123 110 105 104 103
15 330 2 17 42 350 351 336 316 355 348 325 295 310 305 304 283 295 298 313 50 11 323 302 322 298 177 156 196 194 215 185 181 260 290 141 266 332 102 92 102 106 105 107 107
341 288 343 22 32 349 320 310 338 356 340 353 310 315 316 311 305 247 278 304 327 319 297 339 287 323 345 114 106 172 234 184 180 344 171 99 267 9 53 82 93 111 112 112 112
343 344 343 356 351 339 316 347 351 354 336 336 305 305 310 312 294 284 289 301 318 327 249 188 292 258 210 137 145 113 309 161 179 357 53 358 104 68 71 100 102 103 112 113 112
16 15 23 312 320 311 309 2 346 343 354 350 299 325 329 309 312 272 313 312 329 132 325 185 259 248 265 285 128 161 250 326 289 210 131 157 142 153 129 124 117 115 107 106 108
27 351 323 297 290 318 17 345 349 337 346 334 324 323 314 302 294 309 308 301 282 183 125 304 291 346 257 311 337 187 206 230 256 200 121 120 113 114 106 102 112 108 109 107 105
8 347 315 285 324 333 339 336 340 333 314 326 323 318 318 314 306 290 283 274 259 238 256 230 277 218 342 148 290 211 255 201 354 69 122 143 135 114 102 112 107 109 106 105 103
Wind_Speed_850mb
41 42 42 42 44 47 49 50 50 50 50 50 51 53 57 62 63 56 67 61 59 49 28 35 32 31 33 41 46 40 15 33 50 37 24 58 15 60 36 40 12 23 53 77 67
42 43 44 46 47 48 49 48 46 48 51 53 52 51 51 59 62 67 78 33 23 34 54 45 36 33 41 39 26 23 24 52 18 24 29 43 28 46 10 4 7 51 65 63 70
45 47 49 52 53 51 49 46 45 43 42 43 44 46 51 54 54 10 8 15 42 41 29 58 42 40 49 51 45 17 51 29 35 50 62 48 45 57 10 10 21 27 64 61 55
47 51 56 59 61 59 56 54 52 49 46 42 43 50 42 27 14 12 15 32 54 43 22 36 50 54 9 23 61 33 51 53 49 54 67 41 57 33 19 25 38 33 44 61 58
54 59 64 68 70 71 66 59 56 53 52 42 47 45 32 21 56 45 26 36 29 32 17 31 48 47 40 14 44 47 46 50 59 69 73 60 40 36 34 26 39 34 41 58 57
60 65 69 73 74 73 68 64 60 53 46 44 45 34 26 35 36 21 28 41 26 27 39 33 43 49 37 35 40 16 45 50 58 63 71 44 34 33 42 19 21 26 21 50 58
64 68 72 76 77 73 68 63 54 48 42 35 36 26 30 76 42 26 24 33 25 39 50 44 52 52 33 28 78 66 45 33 48 60 51 50 36 47 42 24 26 24 20 12 68
67 71 75 77 80 71 62 53 46 25 29 29 32 19 28 47 21 23 19 26 24 37 50 43 45 49 53 53 53 33 30 35 46 50 50 35 48 30 34 23 36 28 32 27 21
70 74 79 80 78 64 52 45 26 45 38 33 26 15 27 22 29 14 23 27 24 25 26 38 39 46 45 28 31 25 32 42 48 42 41 38 20 18 39 40 40 32 42 38 37
73 77 81 85 77 54 48 39 37 25 7 10 9 11 39 14 31 56 51 29 26 19 24 24 35 19 23 27 30 34 47 43 49 48 50 48 34 17 41 50 40 37 47 49 45
75 80 83 86 68 40 44 50 47 6 18 28 44 42 70 89 77 55 43 27 33 20 13 16 10 30 34 40 46 38 40 45 31 39 32 47 31 28 23 30 39 49 52 53 50
76 80 85 83 48 28 32 34 22 17 36 60 44 61 68 51 54 48 37 30 22 17 16 19 27 43 35 39 46 50 47 42 32 36 39 23 31 18 26 23 45 52 61 68 64
79 84 87 71 29 25 31 36 29 35 11 34 25 35 35 31 30 47 40 40 20 25 28 26 21 29 50 42 43 52 46 38 31 32 32 22 14 33 37 42 39 70 78 72 78
81 85 78 48 18 23 22 44 35 42 4 9 22 18 32 51 20 18 19 31 10 19 38 23 34 36 40 48 42 44 42 42 31 25 27 33 25 28 37 30 27 33 67 72 72
82 79 59 25 37 29 42 44 41 30 9 10 34 45 71 29 47 5 20 11 20 28 21 17 18 25 36 42 43 40 39 35 37 26 3 30 20 32 26 23 30 28 54 76 77
80 61 33 20 32 40 51 44 24 5 9 19 47 47 50 35 24 10 2 8 11 16 27 38 38 28 18 29 41 36 37 37 31 18 14 36 19 14 29 47 28 16 53 80 78
78 40 21 28 36 38 38 31 6 3 35 31 52 51 25 39 33 27 30 7 8 9 15 20 39 37 28 13 34 41 29 15 21 16 12 23 14 14 31 28 23 22 46 70 76
67 26 16 25 35 30 40 7 4 30 25 39 43 43 20 36 32 38 22 11 13 15 7 8 8 36 43 47 12 37 27 6 9 16 21 23 14 26 20 31 42 58 59 62 75
42 18 22 32 29 22 29 7 7 21 32 37 38 20 24 39 23 27 26 3 14 8 6 8 11 26 34 18 19 12 23 35 10 10 10 11 8 3 29 23 30 45 67 53 76
43 26 17 47 38 24 9 9 16 26 33 30 15 11 26 35 25 28 15 4 12 18 10 8 12 24 36 29 30 16 12 20 8 9 11 10 17 9 10 10 32 37 30 59 66
37 18 34 33 22 24 5 8 21 43 42 20 28 21 27 16 14 12 11 14 2 15 23 6 7 6 35 12 20 7 4 9 5 8 10 12 10 12 11 25 36 39 70 72 81
24 8 38 36 19 16 8 12 23 30 38 17 13 13 10 15 13 10 15 18 1 17 16 9 6 8 27 27 36 13 16 17 14 12 6 8 3 18 31 34 44 53 79 83 84
36 13 31 32 7 9 16 23 23 26 30 16 12 19 7 19 16 13 16 18 13 19 8 10 3 7 12 15 7 9 15 22 16 5 7 5 4 13 21 32 43 68 78 82 84
20 9 19 18 43 18 19 21 31 36 18 37 21 24 25 25 22 17 24 16 48 12 18 11 7 6 3 6 8 7 11 9 7 1 10 6 14 8 12 20 21 50 72 76 78
24 11 15 10 16 33 24 30 39 27 23 20 7 16 39 23 31 7 37 42 24 11 8 11 7 10 20 29 15 11 12 9 11 23 9 17 27 14 10 10 27 56 68 77 81
15 14 19 47 44 29 18 26 37 42 23 21 26 41 36 30 22 49 44 40 11 3 2 4 5 13 11 6 16 6 15 19 23 45 31 31 23 11 19 35 34 56 72 76 74
29 27 18 25 19 21 15 32 40 38 17 44 39 40 39 28 62 71 68 66 33 12 4 2 3 4 2 3 7 14 11 15 4 25 27 28 18 25 15 31 47 60 70 75 76
Wind_Direction_850mb
352 348 343 340 338 336 331 325 324 319 315 313 309 311 314 313 308 297 283 289 281 283 258 270 228 219 240 237 223 234 231 238 238 233 243 263 261 273 275 229 89 63 134 142 145
348 346 344 341 337 332 326 323 319 315 314 310 311 312 312 310 310 293 295 283 301 288 253 256 252 229 235 228 228 211 220 234 235 242 257 272 277 269 254 139 96 102 122 134 148
349 345 341 340 338 335 330 323 319 316 308 303 304 308 308 310 320 302 101 140 348 322 289 233 240 253 254 218 218 246 233 240 238 249 263 273 282 288 200 208 169 153 141 144 152
346 345 344 344 342 338 333 327 324 322 316 308 312 311 311 314 287 350 247 259 302 322 281 219 230 244 261 232 218 246 247 245 250 242 249 257 274 291 291 188 177 189 163 156 153
348 347 346 345 343 338 332 326 320 321 311 309 311 312 309 271 258 310 334 317 310 284 248 232 224 228 240 243 248 234 238 245 248 257 262 277 284 280 293 167 186 177 207 171 171
349 348 346 343 341 335 330 325 320 314 306 309 308 310 283 262 304 297 291 292 268 249 261 255 246 235 271 238 245 256 232 240 248 246 254 255 275 280 272 255 198 171 186 185 175
348 346 344 342 339 333 328 327 324 317 306 299 300 295 265 264 297 296 270 317 319 264 274 274 243 235 230 245 248 249 263 244 230 241 246 239 259 253 257 228 282 217 193 137 179
346 344 342 340 337 332 330 334 330 337 300 288 287 276 258 315 298 306 306 294 308 286 274 271 275 280 263 265 280 251 246 245 239 230 236 204 239 240 228 218 250 233 185 188 187
344 343 341 339 336 331 333 342 344 327 298 281 265 250 266 324 277 320 344 260 283 315 288 263 275 281 275 261 259 256 230 233 240 231 220 216 219 209 196 218 232 220 201 190 196
344 342 339 337 335 332 335 349 350 335 33 353 287 242 259 259 299 298 303 278 264 265 286 271 278 271 262 243 231 227 218 229 224 224 210 224 228 184 230 203 214 220 180 190 206
343 341 338 337 335 337 340 347 358 332 296 283 269 246 277 278 287 288 282 287 285 221 256 243 256 240 246 232 243 244 246 236 249 221 231 216 213 196 229 210 200 201 187 186 200
341 341 339 336 335 348 337 338 3 313 308 313 283 265 267 285 272 279 282 282 295 240 256 260 225 251 242 257 236 245 244 235 227 223 225 205 206 200 209 232 200 197 193 196 203
341 343 339 337 340 354 330 340 321 335 297 306 312 301 335 320 311 271 297 279 245 265 250 238 246 249 247 247 258 238 238 243 230 206 230 208 216 202 210 222 219 200 201 198 201
340 344 339 342 4 3 356 341 325 333 334 272 346 353 312 316 301 289 321 293 212 244 257 223 241 240 251 240 244 249 238 244 247 217 215 204 218 219 203 207 216 206 194 195 200
342 346 344 343 344 338 337 331 321 339 313 33 357 342 338 351 317 308 289 207 257 256 279 269 213 248 237 237 237 266 241 236 250 264 224 200 196 207 170 209 212 209 183 189 197
343 346 349 4 344 346 343 324 313 325 313 336 346 338 338 340 14 321 292 348 2 259 262 264 260 252 270 271 234 244 269 243 246 247 258 255 174 203 186 206 203 182 175 185 192
343 346 356 345 347 355 346 336 14 33 336 340 336 332 337 352 346 352 322 231 216 243 219 266 234 230 219 257 255 229 233 228 217 218 214 264 262 196 205 199 189 170 163 172 182
349 354 13 335 349 345 337 4 310 346 337 334 333 319 353 358 333 344 317 341 272 221 303 264 266 195 201 220 189 224 225 215 137 158 209 220 231 203 210 187 191 166 171 173 173
6 26 13 338 337 324 4 10 349 1 344 332 330 333 338 336 347 347 326 284 350 206 281 302 258 185 185 151 146 218 213 199 309 177 133 194 277 185 181 181 174 160 165 168 175
358 11 21 350 7 332 47 306 347 354 340 339 317 322 317 332 342 342 297 358 340 355 308 288 300 188 178 175 185 221 180 192 191 183 156 159 203 206 155 216 164 147 129 122 121
10 338 6 12 28 34 77 311 318 346 349 338 315 306 318 322 310 306 285 298 12 313 329 252 265 215 157 159 205 166 181 241 17 264 160 151 218 125 80 141 123 110 105 104 103
15 330 2 17 42 350 351 336 316 355 348 325 295 310 305 304 283 295 298 313 50 11 323 302 322 298 177 156 196 194 215 185 181 260 290 141 266 332 102 92 102 106 105 107 107
341 288 343 22 32 349 320 310 338 356 340 353 310 315 316 311 305 247 278 304 327 319 297 339 287 323 345 114 106 172 234 184 180 344 171 99 267 9 53 82 93 111 112 112 112
343 344 343 356 351 339 316 347 351 354 336 336 305 305 310 312 294 284 289 301 318 327 249 188 292 258 210 137 145 113 309 161 179 357 53 358 104 68 71 100 102 103 112 113 112
16 15 23 312 320 311 309 2 346 343 354 350 299 325 329 309 312 272 313 312 329 132 325 185 259 248 265 285 128 161 250 326 289 210 131 157 142 153 129 124 117 115 107 106 108
27 351 323 297 290 318 17 345 349 337 346 334 324 323 314 302 294 309 308 301 282 183 125 304 291 346 257 311 337 187 206 230 256 200 121 120 113 114 106 102 112 108 109 107 105
8 347 315 285 324 333 339 336 340 333 314 326 323 318 318 314 306 290 283 274 259 238 256 230 277 218 342 148 290 211 255 201 354 69 122 143 135 114 102 112 107 109 106 105 103